Time,TemperatureF,DewpointF,PressureIn,WindDirection,WindDirectionDegrees,WindSpeedMPH,WindSpeedGustMPH,Humidity,HourlyPrecipIn,Conditions,Clouds,dailyrainin,SoftwareType,DateUTC
2013-03-14 00:02:00,49.0,22.0,30.25,SW,217,3.0,7.0,34,0.00,,,-99.99,,2013-03-14 06:02:00,
2013-03-14 00:12:00,50.0,21.0,30.25,SSW,210,4.0,6.0,33,0.00,,,-99.99,,2013-03-14 06:12:00,
2013-03-14 00:22:00,49.0,22.0,30.25,WSW,246,5.0,6.0,34,0.00,,,-99.99,,2013-03-14 06:22:00,
2013-03-14 00:32:00,52.0,21.0,30.25,West,262,8.0,8.0,31,0.00,,,-99.99,,2013-03-14 06:32:00,
2013-03-14 00:42:00,52.0,21.0,30.25,WSW,246,7.0,9.0,29,0.00,,,-99.99,,2013-03-14 06:42:00,
2013-03-14 00:52:00,52.0,22.0,30.25,WSW,255,5.0,9.0,30,0.00,,,-99.99,,2013-03-14 06:52:00,
2013-03-14 01:02:00,51.0,22.0,30.25,SW,227,4.0,9.0,30,0.00,,,-99.99,,2013-03-14 07:02:00,
2013-03-14 01:12:00,49.0,22.0,30.25,South,188,4.0,6.0,33,0.00,,,-99.99,,2013-03-14 07:12:00,
2013-03-14 01:22:00,48.0,23.0,30.25,South,181,4.0,6.0,36,0.00,,,-99.99,,2013-03-14 07:22:00,
2013-03-14 01:32:00,47.0,23.0,30.25,SSW,198,7.0,7.0,38,0.00,,,-99.99,,2013-03-14 07:32:00,
2013-03-14 01:42:00,47.0,23.0,30.25,SSW,194,6.0,8.0,39,0.00,,,-99.99,,2013-03-14 07:42:00,
2013-03-14 01:52:00,46.0,23.0,30.25,South,187,4.0,7.0,41,0.00,,,-99.99,,2013-03-14 07:52:00,
2013-03-14 02:02:00,45.0,24.0,30.25,SSW,197,7.0,8.0,42,0.00,,,-99.99,,2013-03-14 08:02:00,
2013-03-14 02:12:00,45.0,24.0,30.25,South,169,7.0,9.0,43,0.00,,,-99.99,,2013-03-14 08:12:00,
2013-03-14 02:21:00,45.0,25.0,30.25,South,180,6.0,9.0,45,0.00,,,-99.99,,2013-03-14 08:21:00,
2013-03-14 02:32:00,44.0,24.0,30.25,South,185,5.0,8.0,45,0.00,,,-99.99,,2013-03-14 08:32:00,
2013-03-14 02:41:00,44.0,24.0,30.25,South,176,5.0,8.0,45,0.00,,,-99.99,,2013-03-14 08:41:00,
2013-03-14 02:51:00,43.0,24.0,30.25,South,178,3.0,9.0,46,0.00,,,-99.99,,2013-03-14 08:51:00,
2013-03-14 03:01:00,43.0,24.0,30.25,SSE,167,6.0,8.0,47,0.00,,,-99.99,,2013-03-14 09:01:00,
2013-03-14 03:12:00,43.0,24.0,30.24,South,179,7.0,9.0,48,0.00,,,-99.99,,2013-03-14 09:12:00,
2013-03-14 03:22:00,42.0,24.0,30.24,South,184,7.0,11.0,49,0.00,,,-99.99,,2013-03-14 09:22:00,
2013-03-14 03:32:00,42.0,24.0,30.24,South,188,4.0,9.0,49,0.00,,,-99.99,,2013-03-14 09:32:00,
2013-03-14 03:42:00,42.0,24.0,30.24,South,183,6.0,8.0,48,0.00,,,-99.99,,2013-03-14 09:42:00,
2013-03-14 03:52:00,43.0,24.0,30.24,SSW,204,9.0,11.0,48,0.00,,,-99.99,,2013-03-14 09:52:00,
2013-03-14 04:02:00,43.0,24.0,30.24,South,177,6.0,11.0,47,0.00,,,-99.99,,2013-03-14 10:02:00,
2013-03-14 04:12:00,42.0,24.0,30.23,SSE,167,4.0,9.0,49,0.00,,,-99.99,,2013-03-14 10:12:00,
2013-03-14 04:22:00,42.0,24.0,30.23,South,180,7.0,8.0,49,0.00,,,-99.99,,2013-03-14 10:22:00,
2013-03-14 04:32:00,42.0,24.0,30.23,South,184,6.0,9.0,50,0.00,,,-99.99,,2013-03-14 10:32:00,
2013-03-14 04:42:00,41.0,24.0,30.24,South,181,6.0,11.0,50,0.00,,,-99.99,,2013-03-14 10:42:00,
2013-03-14 04:52:00,41.0,24.0,30.24,South,172,7.0,9.0,50,0.00,,,-99.99,,2013-03-14 10:52:00,
2013-03-14 05:02:00,41.0,24.0,30.24,South,174,7.0,10.0,50,0.00,,,-99.99,,2013-03-14 11:02:00,
2013-03-14 05:12:00,41.0,24.0,30.24,South,174,5.0,8.0,49,0.00,,,-99.99,,2013-03-14 11:12:00,
2013-03-14 05:22:00,41.0,24.0,30.25,SSE,161,5.0,7.0,49,0.00,,,-99.99,,2013-03-14 11:22:00,
2013-03-14 05:32:00,41.0,24.0,30.25,South,170,8.0,9.0,49,0.00,,,-99.99,,2013-03-14 11:32:00,
2013-03-14 05:42:00,41.0,24.0,30.25,South,177,8.0,10.0,49,0.00,,,-99.99,,2013-03-14 11:42:00,
2013-03-14 05:52:00,41.0,24.0,30.26,South,176,5.0,9.0,49,0.00,,,-99.99,,2013-03-14 11:52:00,
2013-03-14 06:02:00,41.0,24.0,30.26,South,171,5.0,8.0,50,0.00,,,-99.99,,2013-03-14 12:02:00,
2013-03-14 06:12:00,41.0,23.0,30.26,SSE,164,5.0,10.0,49,0.00,,,-99.99,,2013-03-14 12:12:00,
2013-03-14 06:22:00,41.0,24.0,30.26,South,171,4.0,8.0,49,0.00,,,-99.99,,2013-03-14 12:22:00,
2013-03-14 06:33:00,41.0,24.0,30.26,SSE,160,7.0,10.0,49,0.00,,,-99.99,,2013-03-14 12:33:00,
2013-03-14 06:42:00,41.0,23.0,30.27,SSE,168,7.0,10.0,49,0.00,,,-99.99,,2013-03-14 12:42:00,
2013-03-14 06:52:00,41.0,24.0,30.27,South,177,8.0,8.0,50,0.00,,,-99.99,,2013-03-14 12:52:00,
2013-03-14 07:02:00,41.0,24.0,30.27,South,179,9.0,10.0,50,0.00,,,-99.99,,2013-03-14 13:02:00,
2013-03-14 07:12:00,41.0,23.0,30.27,South,189,6.0,11.0,50,0.00,,,-99.99,,2013-03-14 13:12:00,
2013-03-14 07:22:00,41.0,23.0,30.27,South,171,8.0,11.0,50,0.00,,,-99.99,,2013-03-14 13:22:00,
2013-03-14 07:32:00,41.0,23.0,30.27,South,170,7.0,11.0,49,0.00,,,-99.99,,2013-03-14 13:32:00,
2013-03-14 07:42:00,41.0,24.0,30.28,SSE,153,3.0,9.0,50,0.00,,,-99.99,,2013-03-14 13:42:00,
2013-03-14 07:52:00,41.0,24.0,30.28,SSE,151,6.0,6.0,50,0.00,,,-99.99,,2013-03-14 13:52:00,
2013-03-14 08:02:00,41.0,24.0,30.30,SSE,161,4.0,9.0,49,0.00,,,-99.99,,2013-03-14 14:02:00,
2013-03-14 08:12:00,42.0,24.0,30.30,SSE,163,4.0,9.0,49,0.00,,,-99.99,,2013-03-14 14:12:00,
2013-03-14 08:22:00,42.0,24.0,30.30,South,172,10.0,11.0,49,0.00,,,-99.99,,2013-03-14 14:22:00,
2013-03-14 08:32:00,43.0,24.0,30.30,SSE,163,5.0,11.0,47,0.00,,,-99.99,,2013-03-14 14:32:00,
2013-03-14 08:42:00,44.0,24.0,30.31,South,178,4.0,11.0,45,0.00,,,-99.99,,2013-03-14 14:42:00,
2013-03-14 08:52:00,45.0,23.0,30.32,South,174,6.0,10.0,42,0.00,,,-99.99,,2013-03-14 14:52:00,
2013-03-14 09:02:00,46.0,23.0,30.31,South,184,7.0,10.0,40,0.00,,,-99.99,,2013-03-14 15:02:00,
2013-03-14 09:12:00,48.0,24.0,30.31,SSE,155,8.0,9.0,40,0.00,,,-99.99,,2013-03-14 15:12:00,
2013-03-14 09:22:00,49.0,25.0,30.32,SSE,166,5.0,8.0,40,0.00,,,-99.99,,2013-03-14 15:22:00,
2013-03-14 09:32:00,50.0,24.0,30.31,SSE,165,5.0,8.0,37,0.00,,,-99.99,,2013-03-14 15:32:00,
2013-03-14 09:42:00,51.0,23.0,30.31,SSE,157,6.0,10.0,33,0.00,,,-99.99,,2013-03-14 15:42:00,
2013-03-14 09:52:00,53.0,23.0,30.31,SE,137,6.0,10.0,32,0.00,,,-99.99,,2013-03-14 15:52:00,
2013-03-14 10:02:00,54.0,23.0,30.31,South,184,4.0,7.0,30,0.00,,,-99.99,,2013-03-14 16:02:00,
2013-03-14 10:12:00,56.0,23.0,30.31,SSE,167,2.0,8.0,28,0.00,,,-99.99,,2013-03-14 16:12:00,
2013-03-14 10:22:00,57.0,23.0,30.31,SSE,160,3.0,7.0,26,0.00,,,-99.99,,2013-03-14 16:22:00,
2013-03-14 10:32:00,58.0,22.0,30.30,South,176,6.0,8.0,24,0.00,,,-99.99,,2013-03-14 16:32:00,
2013-03-14 10:42:00,59.0,22.0,30.30,SSE,164,4.0,8.0,24,0.00,,,-99.99,,2013-03-14 16:42:00,
2013-03-14 10:52:00,61.0,21.0,30.30,SSE,152,3.0,6.0,22,0.00,,,-99.99,,2013-03-14 16:52:00,
2013-03-14 11:02:00,62.0,21.0,30.28,SSW,193,5.0,7.0,21,0.00,,,-99.99,,2013-03-14 17:02:00,
2013-03-14 11:12:00,62.0,20.0,30.28,SE,139,2.0,8.0,20,0.00,,,-99.99,,2013-03-14 17:12:00,
2013-03-14 11:23:00,63.0,21.0,30.28,South,172,3.0,7.0,20,0.00,,,-99.99,,2013-03-14 17:23:00,
2013-03-14 11:32:00,63.0,20.0,30.27,SSW,203,4.0,6.0,19,0.00,,,-99.99,,2013-03-14 17:32:00,
2013-03-14 11:42:00,64.0,20.0,30.27,East,94,4.0,6.0,19,0.00,,,-99.99,,2013-03-14 17:42:00,
2013-03-14 11:52:00,64.0,20.0,30.27,ENE,60,2.0,8.0,18,0.00,,,-99.99,,2013-03-14 17:52:00,
2013-03-14 12:02:00,66.0,20.0,30.27,SE,139,3.0,5.0,17,0.00,,,-99.99,,2013-03-14 18:02:00,
2013-03-14 12:12:00,64.0,20.0,30.27,South,189,5.0,10.0,18,0.00,,,-99.99,,2013-03-14 18:12:00,
2013-03-14 12:22:00,64.0,19.0,30.27,East,86,1.0,7.0,18,0.00,,,-99.99,,2013-03-14 18:22:00,
2013-03-14 12:32:00,65.0,21.0,30.26,NW,318,3.0,7.0,18,0.00,,,-99.99,,2013-03-14 18:32:00,
2013-03-14 12:42:00,66.0,21.0,30.26,East,96,4.0,11.0,17,0.00,,,-99.99,,2013-03-14 18:42:00,
2013-03-14 12:52:00,66.0,20.0,30.25,ESE,109,3.0,9.0,17,0.00,,,-99.99,,2013-03-14 18:52:00,
2013-03-14 13:02:00,67.0,19.0,30.25,NE,54,6.0,7.0,16,0.00,,,-99.99,,2013-03-14 19:02:00,
2013-03-14 13:12:00,68.0,19.0,30.25,ENE,66,2.0,9.0,15,0.00,,,-99.99,,2013-03-14 19:12:00,
2013-03-14 13:22:00,69.0,20.0,30.24,SSW,204,3.0,7.0,15,0.00,,,-99.99,,2013-03-14 19:22:00,
2013-03-14 13:32:00,68.0,19.0,30.23,South,186,4.0,10.0,15,0.00,,,-99.99,,2013-03-14 19:32:00,
2013-03-14 13:42:00,68.0,17.0,30.23,WNW,291,4.0,9.0,14,0.00,,,-99.99,,2013-03-14 19:42:00,
2013-03-14 13:52:00,68.0,18.0,30.21,SSE,164,5.0,9.0,15,0.00,,,-99.99,,2013-03-14 19:52:00,
2013-03-14 14:02:00,68.0,18.0,30.21,NE,40,5.0,8.0,15,0.00,,,-99.99,,2013-03-14 20:02:00,
2013-03-14 14:11:00,68.0,17.0,30.20,SE,138,5.0,10.0,14,0.00,,,-99.99,,2013-03-14 20:11:00,
2013-03-14 14:22:00,70.0,18.0,30.20,SSW,192,3.0,5.0,14,0.00,,,-99.99,,2013-03-14 20:22:00,
2013-03-14 14:32:00,70.0,17.0,30.19,WNW,298,6.0,7.0,13,0.00,,,-99.99,,2013-03-14 20:32:00,
2013-03-14 14:42:00,69.0,15.0,30.19,SSE,157,4.0,8.0,13,0.00,,,-99.99,,2013-03-14 20:42:00,
2013-03-14 14:52:00,69.0,17.0,30.19,SE,145,5.0,7.0,13,0.00,,,-99.99,,2013-03-14 20:52:00,
2013-03-14 15:02:00,70.0,16.0,30.18,NNW,338,2.0,9.0,13,0.00,,,-99.99,,2013-03-14 21:02:00,
2013-03-14 15:12:00,70.0,16.0,30.18,NW,326,3.0,9.0,13,0.00,,,-99.99,,2013-03-14 21:12:00,
2013-03-14 15:22:00,70.0,16.0,30.18,NNW,344,3.0,8.0,12,0.00,,,-99.99,,2013-03-14 21:22:00,
2013-03-14 15:32:00,70.0,17.0,30.17,ENE,75,3.0,8.0,13,0.00,,,-99.99,,2013-03-14 21:32:00,
2013-03-14 15:43:00,71.0,17.0,30.17,NNW,335,5.0,7.0,13,0.00,,,-99.99,,2013-03-14 21:43:00,
2013-03-14 15:52:00,70.0,17.0,30.17,NW,310,3.0,11.0,13,0.00,,,-99.99,,2013-03-14 21:52:00,
2013-03-14 16:03:00,71.0,16.0,30.17,NW,312,7.0,10.0,12,0.00,,,-99.99,,2013-03-14 22:03:00,
2013-03-14 16:12:00,71.0,16.0,30.17,North,10,8.0,8.0,12,0.00,,,-99.99,,2013-03-14 22:12:00,
2013-03-14 16:23:00,72.0,16.0,30.17,North,359,6.0,13.0,12,0.00,,,-99.99,,2013-03-14 22:23:00,
2013-03-14 16:33:00,70.0,15.0,30.17,NW,312,9.0,10.0,12,0.00,,,-99.99,,2013-03-14 22:33:00,
2013-03-14 16:42:00,70.0,5.0,30.15,WNW,294,13.0,20.0,8,0.00,,,-99.99,,2013-03-14 22:42:00,
2013-03-14 16:52:00,70.0,8.0,30.17,West,274,22.0,22.0,9,0.00,,,-99.99,,2013-03-14 22:52:00,
2013-03-14 17:02:00,70.0,9.0,30.15,WNW,298,14.0,22.0,9,0.00,,,-99.99,,2013-03-14 23:02:00,
2013-03-14 17:12:00,70.0,9.0,30.15,NW,305,7.0,17.0,9,0.00,,,-99.99,,2013-03-14 23:12:00,
2013-03-14 17:22:00,69.0,10.0,30.15,WNW,295,9.0,13.0,10,0.00,,,-99.99,,2013-03-14 23:22:00,
2013-03-14 17:33:00,69.0,12.0,30.15,West,277,16.0,18.0,11,0.00,,,-99.99,,2013-03-14 23:33:00,
2013-03-14 17:42:00,69.0,12.0,30.15,West,266,11.0,20.0,11,0.00,,,-99.99,,2013-03-14 23:42:00,
2013-03-14 17:53:00,69.0,13.0,30.15,West,275,11.0,19.0,11,0.00,,,-99.99,,2013-03-14 23:53:00,
2013-03-14 18:02:00,68.0,11.0,30.15,WNW,284,10.0,19.0,11,0.00,,,-99.99,,2013-03-15 00:02:00,
2013-03-14 18:12:00,67.0,11.0,30.15,West,260,8.0,17.0,11,0.00,,,-99.99,,2013-03-15 00:12:00,
2013-03-14 18:22:00,67.0,11.0,30.17,West,272,9.0,15.0,11,0.00,,,-99.99,,2013-03-15 00:22:00,
2013-03-14 18:32:00,66.0,11.0,30.17,WNW,292,14.0,19.0,11,0.00,,,-99.99,,2013-03-15 00:32:00,
2013-03-14 18:42:00,66.0,12.0,30.17,WNW,299,18.0,20.0,12,0.00,,,-99.99,,2013-03-15 00:42:00,
2013-03-14 18:52:00,65.0,15.0,30.18,WNW,299,5.0,17.0,14,0.00,,,-99.99,,2013-03-15 00:52:00,
2013-03-14 19:02:00,64.0,25.0,30.18,NNW,342,3.0,13.0,22,0.00,,,-99.99,,2013-03-15 01:02:00,
2013-03-14 19:11:00,63.0,26.0,30.18,NNW,327,2.0,11.0,25,0.00,,,-99.99,,2013-03-15 01:11:00,
2013-03-14 19:22:00,62.0,26.0,30.18,NW,319,6.0,7.0,25,0.00,,,-99.99,,2013-03-15 01:22:00,
2013-03-14 19:32:00,62.0,25.0,30.18,NNW,348,4.0,7.0,25,0.00,,,-99.99,,2013-03-15 01:32:00,
2013-03-14 19:42:00,61.0,27.0,30.18,NW,307,3.0,7.0,26,0.00,,,-99.99,,2013-03-15 01:42:00,
2013-03-14 19:52:00,61.0,26.0,30.18,North,3,5.0,7.0,26,0.00,,,-99.99,,2013-03-15 01:52:00,
2013-03-14 20:02:00,60.0,25.0,30.18,NNE,33,5.0,7.0,26,0.00,,,-99.99,,2013-03-15 02:02:00,
2013-03-14 20:12:00,60.0,26.0,30.18,NE,39,4.0,7.0,27,0.00,,,-99.99,,2013-03-15 02:12:00,
2013-03-14 20:22:00,60.0,25.0,30.18,NNE,26,4.0,7.0,26,0.00,,,-99.99,,2013-03-15 02:22:00,
2013-03-14 20:32:00,58.0,26.0,30.18,NNE,32,5.0,6.0,29,0.00,,,-99.99,,2013-03-15 02:32:00,
2013-03-14 20:42:00,58.0,27.0,30.17,North,354,1.0,6.0,30,0.00,,,-99.99,,2013-03-15 02:42:00,
2013-03-14 20:52:00,57.0,27.0,30.18,NNW,333,3.0,4.0,31,0.00,,,-99.99,,2013-03-15 02:52:00,
2013-03-14 21:02:00,55.0,27.0,30.18,North,350,3.0,3.0,33,0.00,,,-99.99,,2013-03-15 03:02:00,
2013-03-14 21:12:00,56.0,26.0,30.18,ENE,68,3.0,3.0,31,0.00,,,-99.99,,2013-03-15 03:12:00,
2013-03-14 21:22:00,56.0,27.0,30.18,South,188,6.0,6.0,31,0.00,,,-99.99,,2013-03-15 03:22:00,
2013-03-14 21:32:00,57.0,26.0,30.18,SSE,168,4.0,7.0,31,0.00,,,-99.99,,2013-03-15 03:32:00,
2013-03-14 21:42:00,56.0,26.0,30.18,NW,314,3.0,4.0,30,0.00,,,-99.99,,2013-03-15 03:42:00,
2013-03-14 21:52:00,57.0,23.0,30.18,WSW,250,5.0,7.0,26,0.00,,,-99.99,,2013-03-15 03:52:00,
2013-03-14 22:03:00,56.0,25.0,30.18,WSW,246,5.0,7.0,30,0.00,,,-99.99,,2013-03-15 04:03:00,
2013-03-14 22:12:00,56.0,23.0,30.18,WSW,246,5.0,6.0,28,0.00,,,-99.99,,2013-03-15 04:12:00,
2013-03-14 22:22:00,55.0,24.0,30.18,SSW,210,6.0,8.0,30,0.00,,,-99.99,,2013-03-15 04:22:00,
2013-03-14 22:32:00,54.0,23.0,30.19,SSW,201,5.0,9.0,30,0.00,,,-99.99,,2013-03-15 04:32:00,
2013-03-14 22:42:00,54.0,20.0,30.18,South,191,4.0,10.0,27,0.00,,,-99.99,,2013-03-15 04:42:00,
2013-03-14 22:52:00,53.0,20.0,30.18,South,180,7.0,10.0,27,0.00,,,-99.99,,2013-03-15 04:52:00,
2013-03-14 23:02:00,52.0,20.0,30.18,SSW,196,6.0,9.0,28,0.00,,,-99.99,,2013-03-15 05:02:00,
2013-03-14 23:12:00,52.0,20.0,30.17,SSW,193,7.0,10.0,29,0.00,,,-99.99,,2013-03-15 05:12:00,
2013-03-14 23:22:00,52.0,20.0,30.17,South,186,4.0,11.0,29,0.00,,,-99.99,,2013-03-15 05:22:00,
2013-03-14 23:32:00,51.0,20.0,30.17,SSE,163,8.0,11.0,29,0.00,,,-99.99,,2013-03-15 05:32:00,
2013-03-14 23:42:00,52.0,20.0,30.17,SSE,168,6.0,10.0,29,0.00,,,-99.99,,2013-03-15 05:42:00,
2013-03-14 23:52:00,52.0,20.0,30.17,SSW,207,6.0,11.0,28,0.00,,,-99.99,,2013-03-15 05:52:00,